Location: ??????
(41.3164°N, 22.6615°E)
Time: 11:06:38
(UTC+00:00)

Aureole 2 - Pass Details

Date: 16 October 2021
Orbit: 365 x 885 km, 73.9° (Epoch: 02 December)

Event Time Altitude Azimuth Distance (km) Brightness Sun altitude
Rises 16:16:00 0° 343° (NNW) 2,219 8.1 -6.2°
Reaches altitude 10° 16:17:58 10° 346° (NNW) 1,376 7.0 -6.6°
Maximum altitude 16:20:54 67° 69° (ENE) 420 4.0 -7.1°
Drops below altitude 10° 16:24:03 10° 154° (SSE) 1,468 6.8 -7.7°
Sets 16:26:11 0° 157° (SSE) 2,388 7.9 -8.1°
